This demonstration page uses our WeatherBlox Daily Observations layout. Learn more.

41.55636, -103.73856

Hourly Observations for May 27, 2016

Temp ( °F °C ) Dew Point ( °F °C ) Humidity (%) Winds ( mph kmh ) Pressure ( in mb ) Visibility ( mi km ) Precip ( " mm )
12:53 am 00:53 Mostly Cloudy 53 11.7 42 5.6 66 66 N 8 13 29.75 1008 10 16.0934 0 0
1:53 am 01:53 Clear 50 10 43 6.1 77 77 NNW 7 11 29.75 1008 10 16.0934 0 0
2:53 am 02:53 Clear 50 10 44 6.7 80 80 NW 5 7 29.75 1007 10 16.0934 0 0
3:53 am 03:53 Mostly Cloudy 51 10.6 45 7.2 80 80 NNW 13 20 29.74 1007 10 16.0934 0 0
4:53 am 04:53 Cloudy 53 11.7 46 7.8 77 77 NNE 13 20 29.74 1007 10 16.0934 0 0.0254
5:53 am 05:53 Cloudy 51 10.6 47 8.3 86 86 NNE 12 19 29.75 1008 10 16.0934 0.01 0.254
6:53 am 06:53 Mostly Cloudy 53 11.7 47 8.3 80 80 NNW 7 11 29.76 1008 10 16.0934 0 0
7:53 am 07:53 Cloudy 54 12.2 45 7.2 72 72 NNW 6 9 29.78 1009 10 16.0934 0 0
8:53 am 08:53 Cloudy 56 13.3 44 6.7 65 65 N 12 19 29.8 1009 10 16.0934 0 0
9:53 am 09:53 Cloudy 58 14.4 44 6.7 60 60 N 7 11 29.79 1009 10 16.0934 0 0
10:53 am 10:53 Cloudy with Light Rain 57 13.9 46 7.8 67 67 E 13 20 29.82 1010 10 16.0934 0 0.0254
11:01 am 11:01 Cloudy with Light Rain 55 12.8 49 9.4 80 80 ESE 10 17 29.8 1009 10 16.0934 0 0.0254
11:53 am 11:53 Cloudy with Light Rain 58 14.4 45 7.2 62 62 NE 18 30 29.85 1011 10 16.0934 0 0.0254
12:53 pm 12:53 Mostly Cloudy 59 15 46 7.8 62 62 E 17 28 29.83 1010 10 16.0934 0 0.0254
1:44 pm 13:44 Mostly Cloudy 57 14 45 7 63 63 ENE 12 19 29.83 1010 10 16.0934 0 0
1:53 pm 13:53 Mostly Cloudy 57 13.9 44 6.7 62 62 ENE 10 17 29.85 1011 10 16.0934 0 0
2:53 pm 14:53 Cloudy 59 15 44 6.7 58 58 SE 7 11 29.83 1010 10 16.0934 0 0.0254
3:53 pm 15:53 Sunny 59 15 44 6.7 58 58 undefined N/A 29.81 1009 10 16.0934 0 0
4:53 pm 16:53 Mostly Cloudy 59 15 45 7.2 60 60 S 6 9 29.81 1010 10 16.0934 0 0
5:53 pm 17:53 Cloudy 60 15.6 45 7.2 58 58 W 3 6 29.81 1009 10 16.0934 0 0
6:53 pm 18:53 Mostly Sunny 60 15.6 45 7.2 58 58 Calm 29.78 1009 10 16.0934 0 0
7:53 pm 19:53 Sunny 57 13.9 47 8.3 69 69 NW 3 6 29.8 1009 10 16.0934 0 0
8:53 pm 20:53 Clear 53 11.7 45 7.2 74 74 WNW 3 6 29.82 1010 10 16.0934 0 0
9:53 pm 21:53 Clear 50 10 44 6.7 80 80 WNW 6 9 29.84 1011 10 16.0934 0 0
10:53 pm 22:53 Clear 48 8.9 43 6.1 83 83 N 6 9 29.86 1011 10 16.0934 0 0
11:53 pm 23:53 Clear 47 8.3 43 6.1 86 86 N 6 9 29.85 1011 10 16.0934 0 0

Powered by AerisWeather